Voltar ao catálogo

STARLINK-5558

AtivoComunicaçõesVLEO
NORAD 55631·PAYLOAD·🇺🇸 United States

Lançado Feb 17, 2023 de Vandenberg Space Force Base

Loading…

Próximas Passagens (próximas 24 horas)

TLE

AtualizadoSource: CelesTrak SupGP

Época: Sep 15, 2026, 01:31 UTC

1 55631C 23021D   26258.06368056 -.00016684  00000+0 -13981-2 0  2583
2 55631  69.9998  86.8852 0002548 273.4778 202.8746 14.98344480    11

Acompanhe STARLINK-5558 em tempo real com AllMySat

Download on the App Store